Temperature
8 8 8 9 11 12 12 12 12 13 14 13 13 13 14 15 15 15 15 15 14 14 13 13 13 12 12 12 12 12 12 12 12 12 12 12 12 12 12 12 12 12 12 12
8 8 9 11 11 12 12 12 12 13 13 13 13 13 13 14 14 14 14 14 14 13 13 13 12 12 12 12 12 12 12 12 12 12 12 12 12 12 12 12 12 12 12 11
8 9 10 10 10 11 11 11 11 12 12 13 12 12 12 13 14 14 14 14 13 13 13 12 12 11 11 11 11 12 11 11 11 11 11 11 11 11 11 11 11 11 11 11
8 9 10 10 10 10 10 11 12 11 10 10 11 9 11 12 12 12 13 13 13 13 12 12 11 11 11 11 11 11 11 11 11 11 11 11 11 11 11 11 11 11 11 11
8 9 9 9 10 10 10 11 11 11 10 9 10 10 11 12 11 12 12 13 12 12 11 11 10 10 10 10 10 10 10 10 10 10 10 11 11 11 11 11 11 10 10 10
8 9 9 9 10 10 10 10 10 10 9 8 10 10 10 11 12 11 11 12 11 11 11 10 10 10 10 10 10 10 10 10 10 10 10 10 10 10 10 10 10 10 10 10
7 8 8 9 8 9 9 8 7 7 7 8 10 10 10 11 11 11 10 10 10 10 10 9 9 9 9 9 9 9 9 9 9 9 9 10 9 10 10 10 10 9 9 9
5 5 7 8 8 8 8 8 7 7 7 8 10 9 9 10 10 10 10 10 9 9 9 9 9 8 8 8 8 8 8 9 8 9 9 9 9 9 9 9 9 9 9 9
5 5 7 8 8 8 7 8 9 8 8 8 8 9 8 9 9 9 9 8 8 8 8 8 8 8 7 7 8 8 8 8 8 8 8 8 8 8 8 8 8 8 8 8
5 4 6 7 8 7 7 8 7 7 7 7 8 8 7 7 7 8 7 7 7 7 7 7 7 7 7 7 7 7 7 7 7 7 7 7 7 7 8 8 8 8 8 8
5 4 5 6 5 6 6 7 7 7 7 7 7 7 8 7 7 7 6 6 6 6 6 6 6 6 6 6 6 6 6 7 7 7 7 7 7 7 7 7 7 7 7 7
4 4 3 4 6 6 6 6 6 5 6 7 6 6 7 7 7 6 6 6 6 5 6 6 6 6 5 5 5 5 6 6 6 6 6 6 7 7 7 7 7 7 6 6
4 3 3 3 4 5 5 5 5 5 5 5 5 5 6 6 6 6 5 5 5 5 5 5 5 5 5 5 5 5 5 5 6 6 6 6 6 6 6 6 6 6 6 6
3 2 2 3 3 3 4 4 5 5 4 5 5 5 5 5 5 5 5 5 4 4 4 4 4 4 4 4 4 4 4 5 5 5 5 5 6 6 6 6 6 5 5 5
2 1 2 3 4 4 4 4 5 4 5 5 5 4 4 4 4 4 5 4 4 3 3 3 3 3 3 3 3 3 4 4 4 5 5 5 5 5 5 5 5 5 5 5
1 0 1 2 4 4 4 4 4 4 5 4 4 3 4 4 4 4 4 3 3 3 2 2 2 2 2 2 2 3 3 3 3 4 4 4 4 4 4 4 4 4 4 4
0 0 1 2 3 3 2 2 3 3 4 4 3 3 3 3 3 3 3 2 2 2 2 2 2 1 1 1 2 2 2 2 3 3 3 3 4 4 4 4 4 4 4 4
-1 -0 0 1 2 1 1 2 3 3 3 3 3 2 2 2 3 2 2 2 2 1 1 1 1 1 1 1 1 1 2 2 2 2 3 3 3 3 3 3 3 3 3 3
-0 -0 0 1 1 1 1 1 1 1 1 1 1 1 1 1 2 1 1 1 1 1 1 1 1 1 1 1 1 1 1 1 2 2 2 2 2 2 2 2 2 2 2 2
-0 -1 -0 0 0 0 -0 0 0 1 -0 0 1 0 0 1 -0 -0 -0 0 0 0 0 0 0 0 0 0 0 1 1 1 1 1 1 1 1 2 2 2 2 2 2 2
-2 -1 -1 -1 -1 -1 -2 -1 0 -0 -1 -0 0 0 0 -0 -1 -1 -1 -1 -1 -0 -0 -0 -0 -0 -0 -0 -0 0 0 0 0 1 1 1 1 1 1 1 1 1 1 1
-3 -2 -2 -1 -1 -2 -2 -2 -2 -2 -1 -1 -1 -1 -1 -1 -1 -1 -1 -1 -1 -1 -1 -1 -1 -1 -1 -1 -0 -0 -0 -0 -0 0 0 0 0 0 0 0 0 0 0 1
-3 -3 -3 -3 -3 -2 -2 -2 -2 -2 -2 -2 -2 -2 -2 -2 -2 -2 -2 -2 -2 -2 -2 -2 -1 -1 -1 -1 -1 -1 -1 -1 -1 -1 -0 -0 -0 -0 -1 -0 -0 -0 -0 -0
-3 -2 -2 -3 -3 -2 -2 -3 -3 -3 -3 -2 -3 -3 -3 -3 -3 -3 -3 -2 -2 -2 -2 -2 -2 -2 -2 -2 -2 -2 -2 -1 -1 -1 -1 -1 -1 -1 -1 -1 -1 -1 -1 -1
-4 -3 -3 -4 -3 -3 -3 -3 -3 -3 -3 -3 -3 -3 -3 -3 -3 -3 -3 -3 -3 -3 -3 -3 -3 -3 -3 -3 -3 -2 -2 -2 -2 -2 -2 -2 -2 -2 -2 -2 -2 -2 -2 -2
-4 -4 -4 -4 -4 -4 -4 -4 -4 -4 -4 -4 -4 -4 -4 -4 -4 -4 -4 -3 -3 -3 -3 -3 -3 -3 -3 -3 -3 -3 -3 -3 -3 -3 -3 -3 -3 -3 -3 -2 -2 -2 -2 -2
Wind_Speed
8 7 10 13 16 11 10 12 11 9 8 10 11 10 8 6 6 6 6 7 7 6 6 6 6 7 7 8 8 8 8 7 6 4 4 4 4 4 4 5 7 7 5 5
6 11 11 11 12 13 10 10 9 5 7 8 9 10 7 7 7 7 6 6 7 7 6 6 6 6 7 7 8 8 8 7 6 5 4 4 4 3 3 4 5 6 5 5
8 6 10 11 11 13 11 9 8 6 4 5 5 7 9 7 6 5 6 6 6 7 7 7 6 5 6 7 7 7 7 7 6 6 4 4 4 3 3 3 3 4 5 5
7 5 8 10 10 10 9 7 6 7 6 4 7 5 9 9 8 8 7 6 6 5 5 6 6 5 5 5 5 6 7 7 6 6 6 7 5 4 4 4 3 3 5 5
4 5 7 9 10 9 5 4 4 5 5 3 6 5 6 11 10 10 8 6 6 5 5 5 5 4 4 4 5 5 6 6 5 5 6 6 5 4 4 4 5 4 3 4
2 2 4 5 5 6 4 4 2 1 2 5 9 7 5 8 12 11 9 7 5 5 5 5 5 4 3 3 4 5 5 5 5 5 5 5 5 5 6 5 5 4 3 3
2 3 1 1 3 4 5 7 4 4 5 6 8 6 3 1 4 7 8 7 5 5 5 5 5 5 4 4 4 5 5 5 5 5 5 5 5 5 6 5 5 4 3 2
4 4 4 2 4 5 8 7 5 5 6 4 7 6 2 2 5 6 7 6 6 5 4 5 5 4 4 4 4 4 5 5 5 5 4 4 4 4 3 4 4 4 3 3
2 2 3 3 2 3 5 6 2 0 1 2 5 3 2 4 5 6 6 6 5 4 4 5 4 4 4 4 4 4 5 5 5 5 4 4 4 4 4 4 4 3 3 3
1 1 3 2 1 1 1 2 1 2 3 3 5 6 5 8 6 6 5 5 4 4 4 4 4 4 4 4 4 3 4 4 4 4 4 4 4 4 4 4 4 3 3 3
2 1 2 3 4 4 3 3 2 2 2 2 4 2 2 5 7 7 5 5 4 4 3 4 4 4 5 5 4 3 4 4 4 3 4 4 4 4 4 4 4 3 3 3
3 0 2 2 1 1 2 3 3 3 3 2 1 0 3 5 6 6 6 5 4 4 4 5 5 5 5 5 4 4 4 4 3 3 4 4 4 4 3 3 3 3 3 2
2 1 2 2 0 0 1 2 3 1 1 2 2 2 2 4 5 5 5 5 5 4 5 5 5 5 5 4 4 4 4 4 3 4 4 4 4 3 3 3 3 3 3 2
2 0 2 4 3 3 3 4 4 3 3 3 3 3 3 2 3 4 5 5 5 5 5 5 5 4 4 4 4 4 4 4 4 4 4 3 3 3 3 3 3 2 2 2
3 0 1 2 1 3 3 5 5 6 5 4 3 4 5 4 3 4 5 5 5 5 4 4 4 4 4 4 4 4 4 4 4 4 4 3 3 3 3 3 2 2 2 1
3 1 1 1 2 3 3 4 5 5 4 3 2 2 1 2 3 3 3 4 4 4 4 4 4 4 3 3 3 4 4 3 3 4 4 3 3 3 2 2 2 2 1 1
1 1 1 1 0 0 2 4 5 4 3 4 5 4 2 2 3 3 2 3 4 4 3 3 3 3 3 3 3 3 3 3 3 4 4 3 3 2 2 2 2 2 1 1
0 1 0 1 0 3 1 2 1 2 2 1 1 2 2 2 2 3 2 2 2 3 3 3 3 3 2 2 3 3 4 3 3 4 4 3 3 2 2 1 1 0 1 1
1 1 1 1 1 2 1 3 3 1 1 2 1 2 2 3 3 2 2 3 3 3 3 2 3 3 3 3 3 4 4 3 4 3 3 2 2 2 1 1 1 1 0 1
2 0 1 1 1 2 1 4 5 1 1 3 2 2 2 1 1 1 2 4 4 3 3 3 3 4 3 3 3 4 4 4 3 2 2 2 2 1 1 1 1 1 1 1
2 1 1 2 1 1 3 6 3 2 2 3 1 0 0 1 0 1 3 3 3 4 4 4 4 3 3 2 3 4 3 3 2 2 2 3 2 1 1 1 1 1 2 2
1 1 1 1 1 2 5 3 1 2 3 3 3 2 2 2 3 3 3 3 3 3 4 4 3 3 3 3 3 3 3 2 2 2 2 2 2 1 1 1 2 2 2 2
0 1 0 1 1 1 2 1 1 2 3 3 2 2 2 2 2 2 3 3 3 3 3 3 3 3 3 3 3 3 2 2 2 2 2 2 2 2 2 1 2 2 2 2
2 2 1 1 1 1 3 3 3 3 3 2 1 1 1 1 1 2 2 2 2 3 3 3 3 3 3 3 3 2 1 1 2 2 1 1 1 2 2 2 2 1 2 2
3 3 2 2 2 2 3 4 4 3 3 3 2 2 1 2 2 2 2 2 2 2 2 2 2 2 2 2 2 2 2 2 2 1 1 2 1 1 2 2 2 2 2 2
2 3 3 3 2 1 2 4 4 3 2 2 2 2 2 2 2 2 2 1 2 2 2 2 2 2 2 2 2 2 2 2 1 1 1 1 1 1 2 2 2 3 3 4
Wind_Direction
190 201 206 207 212 217 208 210 211 205 177 193 208 216 214 192 191 193 185 172 169 163 152 144 140 141 137 137 139 141 139 136 130 131 135 133 133 129 117 111 118 120 119 114
184 213 214 214 218 226 233 219 213 191 177 194 208 220 214 195 198 195 186 176 169 160 156 146 142 144 144 147 147 144 145 145 143 146 147 139 132 128 123 119 120 124 120 116
200 212 211 212 212 214 224 221 209 180 180 208 204 223 214 196 195 193 185 179 170 168 163 154 149 149 151 155 158 155 152 151 148 144 134 123 105 104 113 126 129 127 128 120
215 222 205 209 212 207 217 220 210 181 171 204 196 215 210 188 192 198 192 178 171 161 154 151 146 148 152 155 150 149 151 149 147 146 147 148 148 149 157 149 141 135 132 127
206 210 205 208 210 206 209 192 190 190 199 213 205 214 218 180 192 192 185 174 161 149 143 136 134 137 138 142 146 145 145 146 145 148 150 152 148 145 140 141 141 143 131 128
220 223 221 221 209 193 169 142 142 194 211 227 209 203 232 196 192 181 176 167 153 136 127 127 118 113 113 118 135 144 148 150 148 150 153 155 151 149 145 146 149 150 143 138
204 207 188 180 182 178 172 149 156 183 206 223 199 206 223 150 152 159 160 157 142 129 125 123 126 128 123 127 137 145 150 148 149 151 157 162 156 153 152 151 152 149 147 145
178 193 179 181 194 183 197 185 176 182 191 199 183 203 187 98 87 101 113 114 111 115 126 126 129 129 129 135 140 141 145 142 143 149 154 152 146 140 144 147 146 151 154 154
186 185 159 187 205 156 187 214 257 295 201 174 190 173 170 129 104 105 115 116 114 113 109 110 115 124 130 134 135 140 143 138 141 145 144 142 135 130 131 134 129 135 136 136
331 161 187 175 182 255 226 204 186 179 180 198 194 192 188 166 150 130 126 119 110 98 89 98 110 113 117 117 116 116 126 134 133 137 143 134 127 127 128 131 134 131 126 123
346 145 163 158 188 196 182 189 203 204 230 198 189 183 48 145 141 130 116 101 95 90 87 88 91 97 104 103 103 99 102 106 113 113 121 121 120 120 120 127 133 133 135 140
340 109 174 196 238 248 210 187 183 182 234 246 208 246 32 89 102 114 113 103 95 86 80 82 83 82 91 98 102 101 100 101 105 105 108 115 115 118 124 129 129 127 133 134
339 130 146 152 148 170 195 210 212 232 247 250 211 196 89 85 99 108 115 112 108 100 90 85 82 80 80 84 91 94 97 100 97 101 98 107 115 119 123 123 118 120 127 132
7 31 198 201 202 170 203 219 219 195 220 248 233 198 185 157 133 122 117 115 105 98 97 95 90 83 78 77 83 84 81 90 97 97 98 100 109 115 113 109 106 111 120 128
22 19 322 300 257 177 212 217 215 212 222 229 223 212 210 185 153 139 132 123 115 108 101 100 98 90 79 71 72 78 76 76 89 95 94 86 83 89 97 104 107 107 112 126
20 32 353 300 230 180 217 232 225 224 228 215 212 263 202 113 114 114 115 121 119 116 112 104 102 97 90 85 81 80 77 74 85 94 94 89 84 84 94 112 119 119 122 118
351 33 8 242 187 103 239 243 231 211 209 200 225 226 165 143 142 136 120 116 127 123 110 104 107 106 102 97 95 93 90 81 82 89 87 85 84 78 74 89 108 125 146 148
239 338 287 243 84 210 238 5 255 204 227 268 177 163 135 125 105 86 98 115 117 119 109 95 96 97 92 88 90 90 88 87 84 85 83 78 80 74 65 63 68 65 107 125
217 204 241 199 206 250 332 1 2 356 299 347 149 122 79 80 75 39 55 88 89 89 97 92 88 87 82 82 84 88 83 83 81 77 77 76 83 86 83 63 23 349 340 297
14 90 206 222 209 224 336 348 335 329 266 356 60 138 159 113 157 219 62 63 69 69 76 84 86 81 77 73 85 90 87 80 72 64 57 57 72 71 57 21 357 338 317 290
1 332 262 245 218 271 331 323 337 168 250 333 353 155 215 314 189 130 85 71 64 66 78 83 84 84 79 72 84 87 79 71 60 56 59 54 46 39 22 11 355 334 321 315
356 346 331 303 204 260 348 18 44 280 334 6 24 41 45 64 81 89 84 76 69 69 75 77 83 81 76 78 88 83 63 43 46 52 58 53 34 10 14 18 349 329 318 308
157 228 229 200 211 309 31 35 342 348 347 352 13 42 69 76 85 85 79 78 74 73 75 76 81 74 64 64 79 84 55 44 44 50 53 41 24 11 357 342 325 325 317 302
329 308 249 247 299 346 15 21 17 8 351 4 38 62 79 91 88 89 83 77 70 69 74 78 80 76 59 52 60 70 53 50 55 49 39 33 23 3 353 342 331 325 316 303
299 318 286 253 276 321 351 355 352 2 23 37 41 53 88 110 109 99 83 74 71 61 60 72 86 85 65 58 55 44 29 48 53 37 24 8 358 345 343 342 337 332 315 301
278 269 271 266 310 293 308 339 358 3 13 21 36 35 58 96 113 99 90 82 81 75 69 70 73 77 68 59 50 33 21 33 52 29 11 1 346 340 338 335 342 345 324 339
Height
1451 1454 1452 1451 1451 1451 1453 1456 1458 1458 1459 1464 1468 1469 1470 1470 1472 1474 1477 1480 1483 1487 1490 1492 1494 1497 1499 1502 1504 1507 1510 1512 1515 1518 1520 1523 1526 1528 1530 1532 1534 1535 1536 1537
1451 1450 1449 1449 1450 1451 1452 1455 1457 1457 1458 1462 1466 1467 1467 1468 1470 1472 1475 1478 1481 1484 1487 1490 1492 1495 1497 1499 1502 1505 1508 1510 1513 1516 1518 1521 1524 1526 1528 1530 1531 1533 1534 1535
1446 1446 1446 1447 1449 1451 1452 1454 1455 1458 1460 1461 1466 1469 1466 1466 1468 1471 1473 1476 1479 1482 1484 1487 1490 1492 1494 1497 1500 1502 1505 1508 1511 1513 1516 1519 1521 1524 1526 1527 1529 1531 1532 1533
1444 1443 1444 1446 1448 1449 1454 1451 1453 1457 1464 1469 1466 1475 1465 1464 1466 1468 1471 1474 1476 1479 1482 1485 1487 1489 1492 1494 1497 1500 1503 1505 1508 1511 1513 1515 1518 1520 1523 1525 1527 1528 1530 1531
1443 1443 1443 1445 1445 1447 1450 1450 1454 1457 1463 1468 1466 1472 1463 1459 1464 1466 1468 1471 1474 1477 1480 1482 1484 1487 1489 1492 1494 1497 1500 1503 1506 1508 1511 1513 1516 1518 1520 1522 1524 1526 1527 1529
1442 1442 1443 1444 1445 1447 1449 1454 1457 1460 1466 1473 1464 1468 1464 1457 1456 1461 1465 1468 1471 1475 1478 1480 1483 1485 1487 1489 1492 1494 1497 1500 1503 1506 1509 1511 1513 1515 1517 1519 1521 1523 1525 1526
1445 1444 1444 1445 1448 1449 1451 1459 1469 1473 1474 1469 1456 1460 1462 1455 1453 1456 1461 1466 1469 1472 1476 1478 1480 1483 1485 1487 1489 1492 1495 1498 1500 1503 1506 1508 1511 1513 1515 1516 1518 1520 1522 1523
1448 1450 1446 1446 1448 1449 1451 1453 1462 1468 1469 1462 1454 1460 1460 1455 1454 1456 1460 1464 1468 1471 1474 1476 1479 1481 1483 1485 1487 1490 1492 1495 1498 1500 1503 1506 1508 1510 1512 1514 1516 1517 1519 1521
1448 1449 1445 1446 1446 1448 1451 1452 1450 1456 1456 1461 1460 1458 1460 1456 1457 1459 1461 1465 1468 1471 1473 1475 1477 1479 1481 1483 1485 1488 1490 1493 1496 1498 1501 1503 1506 1508 1510 1511 1513 1515 1517 1518
1448 1452 1448 1447 1448 1449 1451 1451 1455 1460 1461 1459 1456 1456 1460 1459 1459 1461 1463 1465 1468 1470 1472 1474 1476 1478 1480 1482 1484 1486 1489 1491 1493 1496 1499 1501 1503 1506 1508 1509 1511 1512 1514 1515
1449 1453 1453 1451 1452 1452 1453 1455 1455 1456 1456 1459 1460 1461 1455 1455 1458 1461 1464 1466 1468 1470 1472 1474 1476 1478 1479 1481 1483 1485 1487 1489 1491 1494 1496 1499 1501 1504 1505 1507 1508 1510 1511 1513
1451 1453 1456 1454 1451 1451 1451 1453 1456 1462 1462 1456 1459 1469 1457 1457 1459 1462 1465 1467 1469 1471 1473 1474 1476 1477 1479 1480 1482 1484 1486 1487 1490 1492 1494 1497 1499 1501 1503 1505 1506 1508 1509 1510
1453 1456 1460 1458 1460 1456 1455 1455 1457 1459 1461 1460 1462 1470 1460 1461 1462 1464 1466 1468 1470 1472 1473 1474 1476 1477 1478 1480 1481 1483 1484 1486 1488 1490 1492 1495 1497 1499 1501 1502 1504 1505 1506 1507
1454 1458 1458 1457 1454 1455 1457 1457 1457 1460 1464 1461 1461 1464 1464 1464 1465 1466 1467 1469 1470 1472 1473 1474 1475 1477 1478 1479 1480 1482 1483 1485 1487 1489 1491 1493 1495 1497 1498 1500 1501 1503 1504 1504
1457 1459 1456 1453 1449 1451 1454 1456 1456 1458 1458 1460 1459 1462 1462 1464 1465 1466 1468 1469 1471 1472 1473 1474 1475 1476 1478 1479 1480 1481 1482 1484 1485 1487 1489 1491 1493 1495 1496 1497 1499 1500 1501 1502
1460 1462 1458 1455 1450 1450 1454 1454 1454 1455 1456 1459 1461 1463 1462 1463 1465 1467 1468 1469 1471 1472 1473 1474 1475 1476 1477 1478 1479 1480 1481 1482 1484 1485 1487 1489 1491 1492 1493 1495 1496 1497 1498 1498
1463 1463 1462 1458 1453 1453 1460 1459 1457 1456 1456 1458 1461 1463 1463 1464 1466 1467 1468 1469 1470 1472 1473 1474 1474 1475 1476 1477 1478 1479 1480 1481 1483 1484 1485 1487 1488 1490 1491 1492 1493 1493 1494 1495
1465 1464 1463 1461 1460 1466 1465 1457 1455 1456 1457 1458 1459 1461 1463 1464 1466 1467 1469 1469 1470 1471 1472 1473 1474 1474 1475 1476 1477 1478 1479 1481 1482 1483 1484 1485 1486 1487 1488 1489 1489 1490 1491 1491
1463 1465 1464 1464 1464 1463 1462 1460 1460 1460 1461 1461 1461 1462 1463 1464 1465 1467 1469 1469 1470 1470 1471 1472 1473 1473 1474 1475 1476 1477 1478 1480 1481 1482 1483 1484 1485 1485 1486 1486 1487 1487 1488 1488
1464 1464 1466 1463 1464 1465 1467 1463 1462 1463 1465 1463 1461 1462 1463 1464 1467 1468 1468 1468 1469 1469 1470 1471 1471 1472 1473 1474 1475 1476 1477 1478 1479 1480 1481 1482 1483 1483 1484 1484 1484 1484 1484 1484
1470 1468 1468 1466 1468 1469 1469 1464 1462 1468 1469 1464 1463 1463 1463 1463 1465 1467 1466 1467 1467 1468 1469 1470 1470 1471 1472 1473 1474 1474 1475 1476 1478 1479 1479 1480 1481 1481 1481 1481 1481 1481 1481 1481
1474 1473 1473 1469 1471 1475 1469 1466 1469 1469 1465 1464 1463 1463 1463 1463 1464 1464 1465 1466 1467 1467 1468 1469 1469 1470 1471 1472 1473 1473 1474 1475 1476 1477 1477 1478 1478 1478 1478 1478 1478 1478 1478 1477
1474 1475 1474 1475 1475 1471 1469 1468 1467 1466 1465 1464 1463 1463 1463 1463 1463 1464 1465 1466 1466 1467 1468 1468 1469 1469 1470 1471 1471 1472 1473 1474 1474 1475 1475 1475 1476 1476 1476 1476 1475 1475 1475 1474
1472 1471 1471 1472 1470 1469 1468 1467 1466 1465 1464 1464 1463 1463 1463 1463 1464 1464 1465 1465 1466 1467 1467 1467 1468 1468 1469 1470 1470 1471 1471 1472 1472 1473 1473 1473 1473 1473 1473 1473 1473 1472 1472 1471
1474 1472 1471 1471 1470 1468 1467 1467 1466 1464 1464 1463 1463 1463 1463 1463 1463 1464 1464 1465 1465 1466 1466 1467 1467 1467 1467 1468 1469 1469 1470 1470 1470 1470 1471 1471 1471 1471 1471 1471 1470 1470 1469 1469
1473 1474 1473 1470 1469 1469 1468 1466 1465 1464 1463 1463 1462 1462 1462 1463 1463 1463 1464 1464 1465 1465 1465 1466 1466 1466 1466 1467 1467 1468 1468 1468 1468 1468 1469 1469 1469 1469 1468 1468 1468 1467 1468 1467